Location: Newark
(42.9858°N, 0.6717°E)
Time: 18:34:49
(UTC+00:00)

S-56A Canister/Altair - Pass Details

Date: 26 November 2019
Orbit: 632 x 2500 km, 38.9° (Epoch: 14 December)

Event Time Altitude Azimuth Distance (km) Brightness Sun altitude
Rises 13:27:29 0° 221° (SW) 6,142 13.5 21.8°
Reaches altitude 10° 13:31:59 10° 215° (SW) 5,045 13.8 21.5°
Maximum altitude 13:44:41 41° 152° (SSE) 2,711 10.9 20.3°
Drops below altitude 10° 13:54:11 10° 87° (E) 3,818 10.8 19.4°
Sets 13:57:05 0° 80° (E) 4,561 11.1 19.2°
